[[{"header":{"parameterUnit":"m.s-1","parameterCategory":1,"la1":30.2991,"la2":30.254,"lo1":-89.0895,"lo2":-89.0444,"dy":0.0017,"dx":0.0017,"nx":28,"ny":28,"refTime":"2024-05-14T09:00:00:Z","depth":0,"parameterNumber":2,"parameterNumberName":"U-component_of_WINDS"},"data":[0,0,0,0,0,0,0,0,0,0,0,0,0,0,0,0,0,0,0,0,0,0,0,0,0,0,0,0,0,0,0,0,0,0,0,0,0,0,0,0,0,0,0,0,0,0,0,0,0,0,0,0,0,0,0,0,0,0,-9.6295,-9.6291,0,-9.5877,-9.5872,-9.5867,-9.5302,-9.5292,-9.5283,-9.5274,-9.4854,-9.4852,-9.4849,0,0,0,0,0,0,0,0,0,0,0,0,0,-9.6614,-9.6611,-9.6296,-9.629,-9.6285,-9.5878,-9.5872,-9.5866,-9.5303,-9.5292,-9.528,-9.527,-9.4855,-9.4852,-9.4849,0,0,0,0,0,0,0,0,0,0,0,0,0,-9.6364,-9.661,-9.6297,-9.5955,-9.592,-9.5879,-9.5872,-9.5864,-9.5306,-9.5292,-9.5277,-9.5264,-9.4856,-9.4852,-9.4849,-9.5111,0,0,-9.4838,-9.4836,0,0,0,0,0,0,0,0,-9.6379,-9.6353,-9.601,-9.5978,-9.5939,-9.5626,-9.5829,-9.5612,-9.5309,-9.554,-9.5274,-9.5257,-9.5123,-9.5097,-9.5049,-9.5091,-9.5073,-9.4838,-9.4835,-9.4834,-9.4833,0,0,0,0,0,0,0,-9.6397,-9.6368,-9.613,-9.6006,-9.5963,-9.5825,-9.5774,-9.5785,-9.5417,-9.5518,-9.5476,-9.5434,-9.5101,-9.5055,-9.5036,-9.5067,-9.4838,-9.4835,-9.4832,-9.4831,-9.5301,-9.5315,0,0,0,0,0,0,-9.6464,-9.6386,-9.6143,-9.6117,-9.6128,-9.5831,-9.5773,-9.5742,-9.5414,-9.5351,-9.5447,-9.5409,-9.5067,-9.504,-9.5019,-9.5303,-9.4834,-9.4831,-9.4829,-9.5287,-9.5304,-9.532,0,0,0,0,0,0,-9.6473,-9.6448,-9.616,-9.624,-9.6193,-9.584,-9.5809,-9.5741,-9.5693,-9.536,-9.5292,-9.5467,-9.5055,-9.5024,-9.5091,-9.5281,-9.4829,-9.4826,-9.5269,-9.5292,-9.5312,-9.5876,0,0,0,0,0,0,-9.6485,-9.6454,-9.6549,-9.6246,-9.6191,-9.624,-9.5821,-9.5743,-9.5688,-9.5635,-9.5361,-9.5302,-9.5042,-9.51,-9.5088,-9.5268,-9.4823,-9.5251,-9.5279,-9.5305,-9.5839,-9.5915,-9.598,0,0,0,0,0,-9.6498,-9.6727,-9.6557,-9.6531,-9.6301,-9.6252,-9.622,-9.5913,-9.5705,-9.5798,-9.5584,-9.531,-9.5262,-9.5111,-9.5093,-9.5275,-9.5237,-9.5271,-9.5303,-9.5808,-9.59,-9.5978,0,0,0,0,0,0,-9.7064,-9.6681,-9.6488,-9.6625,-9.6475,-9.6156,-9.6264,-9.6021,-9.5929,-9.5884,-9.5509,-9.5453,-9.5567,-9.5426,-9.5266,-9.5511,-9.5208,-9.524,-9.5599,-9.5683,-9.5752,-9.5785,-9.482,0,0,0,0,0,-9.7204,-9.7194,-9.686,-9.7013,-9.6947,-9.6621,-9.6588,-9.6364,-9.6194,-9.6129,-9.5919,-9.5768,-9.5716,-9.5692,-9.5627,-9.5816,-9.5748,-9.5932,-9.6002,-9.6061,-9.6093,-9.6182,-9.626,-9.5428,-9.5428,-9.5427,0,0,-9.7495,-9.7284,-9.7301,-9.7122,-9.6979,-9.6978,-9.6571,-9.6588,-9.6584,-9.6131,-9.6181,-9.6024,-9.5829,-9.5959,-9.6005,-9.5846,-9.6308,-9.6103,-9.6153,-9.6152,-9.6224,-9.6304,-9.6374,-9.545,-9.5446,-9.5443,0,0,-9.8024,-9.7864,-9.7973,-9.7838,-9.7626,-9.7406,-9.7435,-9.7151,-9.7028,-9.7072,-9.6732,-9.6723,-9.6645,-9.652,-9.6447,-9.6929,-9.6674,-9.6919,-9.7286,-9.7378,-9.7443,-9.7499,-9.7672,-9.7739,-9.6951,-9.6952,-9.6953,0,-9.8413,-9.8396,-9.8061,-9.8098,-9.803,-9.7618,-9.7727,-9.7613,-9.7394,-9.7357,-9.718,-9.7071,-9.6911,-9.7006,-9.7124,-9.7078,-9.7098,-9.6949,-9.746,-9.7513,-9.7561,-9.7722,-9.7788,-9.6983,-9.698,-9.6977,-9.6974,0,-9.8885,-9.888,-9.8994,-9.8789,-9.8733,-9.8808,-9.8485,-9.8469,-9.8252,-9.8053,-9.8103,-9.7896,-9.7782,-9.7787,-9.7576,-9.7853,-9.776,-9.7528,-9.7217,-9.7677,-9.7822,-9.7881,-9.7028,-9.7017,-9.7007,-9.7,0,0,-9.9761,-9.9368,-9.9416,-9.9318,-9.9053,-9.9043,-9.9099,-9.8985,-9.8979,-9.8842,-9.888,-9.8822,-9.8605,-9.8522,-9.8292,-9.8373,-9.8769,-9.8128,-9.8118,-9.8256,-9.9063,-9.9241,-9.9318,-9.8598,-9.8608,-9.8616,-9.9079,0,-10.024,-10.0311,-10.0011,-10.0161,-10.0152,-9.976,-9.9808,-9.9653,-9.9469,-9.9435,-9.923,-9.9196,-9.8911,-9.8858,-9.892,-9.8709,-9.8927,-9.8671,-9.8633,-9.8635,-9.8695,-9.9392,-9.958,-10.0027,-9.9134,-9.9143,-9.915,0,-10.0809,-10.07,-10.085,-10.0576,-10.0561,-10.061,-10.0481,-10.0453,-10.027,-10.0129,-10.0038,-9.9772,-9.9808,-9.9512,-9.9558,-9.9391,-9.9357,-9.9251,-9.9261,-9.9247,-9.8923,-9.9399,-10.0162,-10.0231,-9.9235,-9.9229,-9.9222,0,-10.1435,-10.1325,-10.1399,-10.1327,-10.101,-10.1054,-10.0925,-10.0726,-10.0677,-10.0565,-10.0529,-10.0425,-10.0369,-10.0295,-10.0009,-9.9818,-10.009,-9.9769,-9.9977,-9.9985,-10.0053,-10.0053,-10.0824,-10.0032,-10.003,-10.0029,-10.0028,0,-10.2003,-10.211,-10.1675,-10.1723,-10.1831,-10.1485,-10.1603,-10.1435,-10.1262,-10.127,-10.0925,-10.0941,-10.056,-10.0534,-10.031,-10.0383,-10.036,-10.025,-10.0189,-10.0281,-10.0296,-10.0255,-10.0218,-10.0046,-10.0043,-10.0039,-10.0036,0,-10.272,-10.2433,-10.2489,-10.2184,-10.211,-10.2204,-10.1943,-10.1974,-10.1766,-10.1782,-10.1765,-10.1442,-10.1393,-10.1098,-10.0983,-10.0832,-10.0988,-10.0865,-10.105,-10.101,-10.1235,-10.122,-10.2008,-10.2094,-10.1249,-10.1258,-10.1265,0,-10.3102,-10.3175,-10.2878,-10.2857,-10.2743,-10.2715,-10.2661,-10.2325,-10.2284,-10.208,-10.2137,-10.2059,-10.1979,-10.192,-10.1676,-10.1586,-10.1459,-10.1742,-10.1444,-10.1534,-10.1465,-10.1465,-10.1471,-10.1807,-10.1818,-10.1827,-10.1834,0,-10.3811,-10.3665,-10.3601,-10.3489,-10.3435,-10.3331,-10.3205,-10.3209,-10.2836,-10.2808,-10.2752,-10.2691,-10.2571,-10.25,-10.2368,-10.2234,-10.1976,-10.1929,-10.1973,-10.2069,-10.2174,-10.2121,-10.1225,-10.1913,-10.1905,-10.19,-10.1895,-10.1892,-10.4371,-10.4418,-10.4216,-10.4157,-10.4027,-10.3918,-10.3932,-10.3726,-10.3673,-10.3548,-10.3352,-10.3325,-10.3138,-10.2933,-10.2822,-10.2796,-10.2645,-10.2709,-10.2725,-10.2746,-10.2794,-10.2177,-10.2771,-10.2768,-10.2766,-10.2763,-10.2761,0,-10.5063,-10.4914,-10.4862,-10.4697,-10.4651,-10.4406,-10.4255,-10.4234,-10.4213,-10.4059,-10.3987,-10.3925,-10.3853,-10.3603,-10.3506,-10.3534,-10.3413,-10.352,-10.3516,-10.3489,-10.2934,-10.2907,-10.362,-10.362,-10.362,-10.362,-10.362,-10.362,-10.5418,-10.5484,-10.5316,-10.5314,-10.5161,-10.5131,-10.5066,-10.4964,-10.4839,-10.4784,-10.4722,-10.4558,-10.4366,-10.4252,-10.4176,-10.4104,-10.4085,-10.4234,-10.4125,-10.3611,-10.3529,-10.345,-10.3422,-10.4233,-10.4233,-10.468,-10.4684,-10.4688]},{"header":{"parameterUnit":"m.s-1","parameterCategory":1,"la1":30.2991,"la2":30.254,"lo1":-89.0895,"lo2":-89.0444,"dy":0.0017,"dx":0.0017,"nx":28,"ny":28,"refTime":"2024-05-14T09:00:00:Z","depth":0,"parameterNumber":3,"parameterNumberName":"V-component_of_WINDS"},"data":[0,0,0,0,0,0,0,0,0,0,0,0,0,0,0,0,0,0,0,0,0,0,0,0,0,0,0,0,0,0,0,0,0,0,0,0,0,0,0,0,0,0,0,0,0,0,0,0,0,0,0,0,0,0,0,0,0,0,4.1212,4.1212,0,4.1213,4.1213,4.1213,4.1332,4.1335,4.1338,4.1341,4.1327,4.1324,4.132,0,0,0,0,0,0,0,0,0,0,0,0,0,4.1297,4.1294,4.1212,4.1212,4.1212,4.1213,4.1213,4.1213,4.1331,4.1335,4.1339,4.1342,4.1328,4.1324,4.132,0,0,0,0,0,0,0,0,0,0,0,0,0,4.1274,4.1294,4.1212,4.1271,4.1277,4.1213,4.1213,4.1213,4.133,4.1335,4.134,4.1344,4.1329,4.1324,4.132,4.1195,0,0,4.1304,4.1302,0,0,0,0,0,0,0,0,4.1276,4.1271,4.1262,4.1267,4.1273,4.1278,4.1238,4.1207,4.1329,4.1309,4.1341,4.1346,4.1305,4.1303,4.1292,4.1194,4.1194,4.1304,4.1301,4.1299,4.1297,0,0,0,0,0,0,0,4.1277,4.1272,4.1212,4.1262,4.1268,4.1293,4.1295,4.1233,4.128,4.1311,4.132,4.1319,4.1309,4.1297,4.1293,4.1193,4.1304,4.13,4.1297,4.1295,4.0985,4.098,0,0,0,0,0,0,4.1272,4.1272,4.1212,4.1212,4.1286,4.1288,4.129,4.1271,4.1282,4.1288,4.1315,4.1325,4.1303,4.1298,4.1293,4.1141,4.1299,4.1294,4.1291,4.099,4.0984,4.0978,0,0,0,0,0,0,4.1274,4.1266,4.1212,4.1245,4.124,4.1281,4.1259,4.1268,4.1256,4.1285,4.1293,4.1295,4.1306,4.13,4.1218,4.1142,4.1292,4.1288,4.0997,4.0989,4.0981,4.084,0,0,0,0,0,0,4.1276,4.1266,4.1222,4.1243,4.1238,4.1141,4.1255,4.1265,4.1249,4.1262,4.1268,4.1273,4.131,4.1225,4.1213,4.1138,4.1284,4.1003,4.0993,4.0984,4.0851,4.0828,4.0809,0,0,0,0,0,4.1278,4.1181,4.122,4.1211,4.1185,4.1137,4.1133,4.1182,4.1243,4.1196,4.1214,4.1273,4.1155,4.1215,4.1203,4.1126,4.1008,4.0996,4.0985,4.0861,4.0833,4.0809,0,0,0,0,0,0,4.1145,4.1185,4.1228,4.1135,4.1132,4.1157,4.11,4.1152,4.1127,4.1139,4.1197,4.1196,4.1103,4.1108,4.1175,4.1002,4.1091,4.1076,4.1001,4.0975,4.0954,4.095,4.128,0,0,0,0,0,4.1107,4.1069,4.1104,4.1018,4.1015,4.1058,4.1039,4.1077,4.1074,4.1071,4.1084,4.1074,4.1034,4.1006,4.0972,4.0856,4.0853,4.0796,4.0775,4.0757,4.074,4.067,4.0643,4.094,4.094,4.094,0,0,4.1023,4.104,4.1012,4.0992,4.0994,4.0947,4.1055,4.1003,4.0967,4.1062,4.0984,4.0993,4.0986,4.0884,4.084,4.0885,4.0659,4.0742,4.0728,4.072,4.0655,4.0627,4.0602,4.0932,4.0933,4.0934,0,0,4.0846,4.0859,4.0786,4.0786,4.079,4.0819,4.0801,4.0819,4.0828,4.0754,4.0822,4.0778,4.0711,4.0701,4.0686,4.0505,4.0553,4.0492,4.0376,4.0307,4.0284,4.0263,4.0189,4.0163,4.0478,4.0477,4.0477,0,4.074,4.0678,4.074,4.0683,4.0668,4.0758,4.068,4.0677,4.0666,4.0651,4.0705,4.0619,4.0621,4.0514,4.0469,4.0459,4.0433,4.0487,4.0284,4.0263,4.0245,4.0174,4.0147,4.0469,4.047,4.0471,4.0472,0,4.0543,4.0499,4.0439,4.043,4.041,4.0343,4.0389,4.0361,4.0401,4.0423,4.034,4.0347,4.0312,4.0292,4.033,4.0188,4.0214,4.0275,4.0364,4.0207,4.0141,4.0116,4.0457,4.046,4.0463,4.0465,0,0,4.0277,4.0306,4.0281,4.0276,4.0286,4.025,4.0185,4.0155,4.0125,4.0116,4.0056,3.9997,4.0052,4.0036,4.0074,4.0015,3.9859,4.0081,4.0082,4.0031,3.9692,3.9639,3.9608,3.9896,3.9891,3.9887,3.9689,0,4.0099,3.9992,4.0046,3.9929,3.9884,3.9969,3.9911,3.9907,3.9926,3.9886,3.9905,3.9858,3.994,3.9929,3.9876,3.9889,3.979,3.9906,3.983,3.9827,3.982,3.9576,3.9521,3.9334,3.9665,3.9661,3.9658,0,3.9876,3.986,3.9739,3.9753,3.9737,3.9684,3.9658,3.9623,3.9618,3.9635,3.9616,3.9667,3.9596,3.9691,3.9589,3.9667,3.964,3.9642,3.9636,3.9622,3.9726,3.9546,3.9276,3.9244,3.962,3.9623,3.9626,0,3.9683,3.9631,3.9551,3.9545,3.9562,3.9521,3.9526,3.9527,3.9504,3.9481,3.9465,3.9433,3.9412,3.9382,3.9419,3.9487,3.9308,3.9409,3.9311,3.9309,3.9262,3.9262,3.8973,3.9261,3.9261,3.9262,3.9262,0,3.9473,3.9394,3.9464,3.9413,3.9324,3.9386,3.9294,3.9308,3.9307,3.9255,3.9328,3.9276,3.9334,3.9285,3.9314,3.9219,3.9212,3.9217,3.9223,3.9204,3.9202,3.918,3.919,3.9254,3.9256,3.9258,3.9259,0,3.9239,3.9285,3.9201,3.9225,3.9229,3.9161,3.9179,3.9129,3.9154,3.9087,3.9074,3.911,3.9057,3.9094,3.904,3.9059,3.8932,3.8962,3.8933,3.8938,3.8834,3.8839,3.8513,3.8469,3.8794,3.8791,3.8788,0,3.9098,3.9039,3.9057,3.903,3.903,3.8986,3.8963,3.9022,3.8994,3.8982,3.8931,3.8886,3.8851,3.876,3.8777,3.8734,3.8756,3.8646,3.875,3.873,3.8742,3.8741,3.873,3.8621,3.8617,3.8614,3.8612,0,3.8839,3.8864,3.8832,3.8805,3.8777,3.8758,3.8744,3.8717,3.8775,3.8739,3.8688,3.8661,3.8607,3.8555,3.852,3.8517,3.8568,3.858,3.8553,3.8528,3.851,3.8508,3.8865,3.8585,3.8587,3.8589,3.8591,3.8592,3.8641,3.859,3.8593,3.8553,3.8549,3.8534,3.8487,3.8507,3.8467,3.8429,3.8466,3.84,3.8392,3.8349,3.8339,3.8284,3.8328,3.8292,3.8281,3.8268,3.8249,3.8528,3.8279,3.828,3.8281,3.8281,3.8282,0,3.8378,3.8385,3.8348,3.8327,3.8292,3.8355,3.8341,3.8306,3.825,3.8241,3.8206,3.8142,3.8093,3.8107,3.806,3.8013,3.8034,3.7997,3.7996,3.7992,3.8218,3.8241,3.798,3.798,3.798,3.798,3.798,3.798,3.8236,3.815,3.8175,3.8085,3.8092,3.8032,3.8018,3.8001,3.7993,3.792,3.7881,3.7893,3.789,3.7844,3.7798,3.7803,3.7777,3.7728,3.774,3.7948,3.7978,3.8006,3.8027,3.7725,3.7725,3.7518,3.7516,3.7515]}]]